Indianapolis, IN

5:50 AM EDT on May 25, 2017 (GMT -0400)
Indianapolis International

Weather History for KIND - June, 2012

Change the Weather History Date:

Saturday, June 30, 2012

  Actual Average Record
Temperature  
Mean Temperature 84 °F 75 °F  
Max Temperature 97 °F 85 °F 97 °F (1933)
Min Temperature 70 °F 65 °F 46 °F (1943)
Degree Days  
Heating Degree Days 0 0  
Month to date heating degree days 15 13  
Since 1 June heating degree days 15 16  
Since 1 July heating degree days 4116 5378  
Cooling Degree Days 19 10  
Month to date cooling degree days 309 226  
Year to date cooling degree days 519 310  
Since 1 June cooling degree days 309 226  
Growing Degree Days 34 (Base 50)    
Moisture  
Dew Point 65 °F    
Average Humidity 56    
Maximum Humidity 79    
Minimum Humidity 33    
Precipitation  
Precipitation T in 0.14 in 1.50 in (1945)
Month to date precipitation 0.09 4.25  
Year to date precipitation 15.15 21.65  
Snow  
Snow 0.00 in 0.00 in 0.00 in ()
Month to date snowfall 0.0 0.0  
Since 1 June snowfall 0.0 0.0  
Since 1 July snowfall 9.8 25.9  
Snow Depth 0.00 in    
Sea Level Pressure  
Sea Level Pressure 29.85 in    
Wind  
Wind Speed 7 mph (NNE)    
Max Wind Speed 38 mph    
Max Gust Speed 45 mph    
Visibility 10 miles    
Events Rain , Thunderstorm    
T = Trace of Precipitation, MM = Missing Value Source: NWS Daily Summary

Daily Weather History Graph

Daily Weather History Graph

Search for Another Location

Airport or City:

Trip Planner

Search our weather history database for the weather conditions in past years. The results will help you decide how hot, cold, wet, or windy it might be!

Date:

Astronomy

Jun. 30, 2012 Rise Set
Actual Time 6:20 AM EDT 9:17 PM EDT
Civil Twilight 5:48 AM EDT 9:49 PM EDT
Nautical Twilight 5:07 AM EDT 10:30 PM EDT
Astronomical Twilight 4:19 AM EDT 11:18 PM EDT
Moon 6:12 PM EDT (6/30) 3:15 AM EDT (6/30)
Length of Visible Light 16h 01m
Length of Day
14h 56m
Waxing Gibbous, 87% of the Moon is Illuminated
Jun 30
Waxing Gibbous
Jul 3
Full
Jul 10
Last Quarter
Jul 19
New
Jul 26
First Quarter

Hourly Weather History & Observations

Time (EDT) Temp. Heat Index Dew Point Humidity Pressure Visibility Wind Dir Wind Speed Gust Speed Precip Events Conditions
12:54 AM 75.0 °F - 68.0 °F 79% 29.83 in 10.0 mi ESE 8.1 mph - N/A   Clear
1:54 AM 75.0 °F - 66.9 °F 76% 29.82 in 10.0 mi ESE 5.8 mph - N/A   Clear
2:54 AM 73.9 °F - 66.9 °F 79% 29.79 in 10.0 mi ESE 5.8 mph - N/A   Partly Cloudy
3:54 AM 73.9 °F - 66.9 °F 79% 29.77 in 10.0 mi SSE 4.6 mph - N/A   Mostly Cloudy
4:29 AM 75.2 °F - 66.2 °F 73% 29.88 in 10.0 mi North 19.6 mph 25.3 mph N/A Thunderstorm Thunderstorm
4:40 AM 77.0 °F - 66.2 °F 69% 29.92 in 10.0 mi NNW 35.7 mph 44.9 mph 0.00 in Rain , Thunderstorm Light Thunderstorms and Rain
4:54 AM 73.0 °F - 66.0 °F 79% 29.87 in 10.0 mi NNE 18.4 mph 35.7 mph 0.00 in Rain , Thunderstorm Light Thunderstorms and Rain
4:59 AM 71.6 °F - 66.2 °F 83% 29.88 in 10.0 mi NNE 19.6 mph 32.2 mph 0.00 in Rain , Thunderstorm Light Thunderstorms and Rain
5:16 AM 71.6 °F - 64.4 °F 78% 29.87 in 10.0 mi NE 15.0 mph - 0.00 in   Overcast
5:54 AM 70.0 °F - 64.9 °F 84% 29.85 in 10.0 mi ENE 13.8 mph - 0.00 in   Mostly Cloudy
7:54 AM 72.0 °F - 64.0 °F 76% 29.83 in 10.0 mi ESE 8.1 mph - N/A   Mostly Cloudy
8:54 AM 77.0 °F - 63.0 °F 62% 29.84 in 10.0 mi SE 6.9 mph - N/A   Mostly Cloudy
9:54 AM 80.1 °F 81.5 °F 63.0 °F 56% 29.85 in 10.0 mi Calm Calm - N/A   Scattered Clouds
10:54 AM 84.9 °F 85.9 °F 63.0 °F 48% 29.85 in 10.0 mi SE 5.8 mph - N/A   Scattered Clouds
11:54 AM 88.0 °F 88.7 °F 63.0 °F 43% 29.85 in 10.0 mi Calm Calm - N/A   Scattered Clouds
12:54 PM 91.9 °F 93.3 °F 64.0 °F 39% 29.84 in 10.0 mi SSW 8.1 mph - N/A   Scattered Clouds
1:54 PM 95.0 °F 96.0 °F 63.0 °F 34% 29.84 in 10.0 mi West 11.5 mph 18.4 mph N/A   Scattered Clouds
2:54 PM 96.1 °F 96.9 °F 62.1 °F 32% 29.83 in 10.0 mi NNW 9.2 mph - N/A   Partly Cloudy
3:54 PM 95.0 °F 95.6 °F 62.1 °F 33% 29.81 in 10.0 mi Variable 6.9 mph - N/A   Mostly Cloudy
4:54 PM 89.1 °F 92.1 °F 66.9 °F 48% 29.85 in 10.0 mi NNW 12.7 mph 26.5 mph 0.00 in Rain Light Rain
5:54 PM 93.9 °F 95.6 °F 64.0 °F 37% 29.83 in 10.0 mi NNW 5.8 mph - 0.00 in   Overcast
6:54 PM 91.9 °F 92.5 °F 62.1 °F 37% 29.83 in 10.0 mi WNW 5.8 mph - N/A   Overcast
7:54 PM 87.1 °F 92.0 °F 70.0 °F 57% 29.83 in 10.0 mi North 9.2 mph - N/A   Overcast
8:54 PM 84.9 °F 88.2 °F 68.0 °F 57% 29.86 in 10.0 mi North 10.4 mph - N/A   Overcast
9:54 PM 82.9 °F 84.6 °F 64.9 °F 54% 29.87 in 10.0 mi NNW 9.2 mph - N/A   Overcast
10:54 PM 80.6 °F 82.3 °F 64.4 °F 58% 29.90 in 10.0 mi NNW 4.6 mph - N/A   Overcast
11:54 PM 81.0 °F 82.7 °F 64.9 °F 58% 29.88 in 10.0 mi Calm Calm - 0.00 in   Overcast